INTELSAT 33E DEB, 61993

Orbit data source: Space-Track

INTELSAT 33E DEB, 61993 is space debris in GEO originally from a launch on Wed, 24 Aug 2016 UTC launched from the French Guiana (FRGUI). Debris objects in space refer to the collection of defunct objects orbiting the Earth. Examples of debris include non-operational satellites, rocket bodies, and fragments generated from explosions, collisions, or faulty payload assembly.

Loading next visibility...
Identifier
61993, 2016-053K
Orbit
GEO
Country
Flag of UnknownUnknown / ITSO
Related business
Manufacturer
Boeing/ES
Mission
Spacecraft
Bus & Motor
Unknown
Mass
Unknown
Launch date (UTC)
2016-08-24 (9 years ago)
Launch vehicle
Unknown
Launch site
French Guiana (FRGUI)
Object type
Payload
Rocket body
Debris
Shape & HBR
Unknown shape, 1.1 m
Radar Cross Section
RCS unknown

Expand to show TLE details & history
Last TLE update: 2 days ago

TLE from 2 days ago
0 INTELSAT 33E DEB
1 61993U 16053K   25290.38588320  .00000091  00000-0  00000-0 0  9998
2 61993   0.8569  73.0298 0079859 312.9658 334.4224  1.01199417  3681
Epoch: 2025-10-17T09:15Z
TLE epoch observation values (Epoch: 2025-10-17T09:15:40.308Z)
Latitude
-0.80768°
Longitude
-165.04825°
Altitude
35,225.293 km
Speed
3.107 km/s
True Right ascension
00h 00m 00s
True Declination
0° 48' 25"
Sunlit
Object was in daylight at epoch
Visualization orbit readout
Latitude
Unknown
Longitude
Unknown
Altitude
Unknown
Speed
Unknown
Apparent Right ascension
Unknown
Apparent Declination
Unknown
Sunlit
N/A
Visualization observer readout
Local Sidereal Time
16:43:28
Azimuth
Unknown
Elevation
Unknown
Doppler factor
Unknown
Orbital elements
Apogee altitude
35,864.282 km
Perigee altitude
35,194.94 km
Semi-major axis
41,907.748 km
Eccentricity
0.00799
Inclination
0.8569°
RAAN
73.0298°
Arg. of periapsis
312.9658°
True anomaly
334.02373°
Mean anomaly
334.4224°
Eccentric anomaly
334.22342°
Mean motion
0.25299 °/min
Orbital period
1,422.99 mins
BSTAR
0
Loading maneuver chart data...
Computing Atmospheric mass density...
Loading historical data...
Loading historical data...
Loading historical data...
Loading historical data...
Loading historical data...
Loading historical data...
Loading historical data...

Documentation

Showing up to 5 results
|